Location: ???????
(55.3754°N, 39.3545°E)
Time: 07:45:10
(UTC+00:00)

In-Cosmos 22 Rocket - Pass Details

Date: 14 April 2026
Orbit: 789 x 886 km, 81.2° (Epoch: 13 May)

Event Time Altitude Azimuth Distance (km) Brightness Sun altitude
Rises 17:36:30 0° 344° (NNW) 3,331 8.2 -9.9°
Reaches altitude 10° 17:38:55 10° 342° (NNW) 2,386 7.4 -10.1°
Maximum altitude 17:44:14 67° 261° (W) 859 4.4 -10.8°
Drops below altitude 10° 17:49:28 10° 179° (S) 2,349 6.2 -11.4°
Enters shadow 17:51:33 - 177° (S) 3,162 6.8 -11.6°
